CZ-6A DEB, 61095

Orbit data source: Space-Track

CZ-6A DEB, 61095 is space debris in LEO originally from a launch on Tue, 06 Aug 2024 UTC launched from the Taiyaun Space Center, China (TSC). Debris objects in space refer to the collection of defunct objects orbiting the Earth. Examples of debris include non-operational satellites, rocket bodies, and fragments generated from explosions, collisions, or faulty payload assembly.

Loading next visibility...
Identifier
61095, 2024-140NM
Orbit
LEO
Country
Flag of CNCN / PRC
Related business
Manufacturer
SAST
Mission
Spacecraft
Bus & Motor
Unknown
Mass
Unknown
Launch date (UTC)
2024-08-06 (2 years ago)
Launch vehicle
Unknown
Launch site
Taiyaun Space Center, China (TSC)
Object type
Payload
Rocket body
Debris
Shape & HBR
Unknown shape, 0.1 m
Radar Cross Section
Medium (>0.1 m² and <1 m²)

Expand to show TLE details & history
Last TLE update: 13 hours ago

TLE from 13 hours ago
0 CZ-6A DEB
1 61095U 24140NM  26171.30483141  .00001018  00000-0  43180-3 0  9992
2 61095  88.9962 273.5462 0034880 165.3019 194.9196 14.24352884 93981
Epoch: 2026-06-20T07:18Z
TLE epoch observation values (Epoch: 2026-06-20T07:18:57.433Z)
Latitude
-0.00007°
Longitude
-104.71447°
Altitude
837.969 km
Speed
7.421 km/s
True Right ascension
18h 14m 11s
True Declination
0° 00' 00"
Sunlit
Object was in full shadow at epoch
Visualization orbit readout
Latitude
Unknown
Longitude
Unknown
Altitude
Unknown
Speed
Unknown
Apparent Right ascension
Unknown
Apparent Declination
Unknown
Sunlit
N/A
Visualization observer readout
Local Sidereal Time
07:23:32
Azimuth
Unknown
Elevation
Unknown
Doppler factor
Unknown
Orbital elements
Apogee altitude
832.678 km
Perigee altitude
782.55 km
Semi-major axis
7,185.751 km
Eccentricity
0.00349
Inclination
88.9962°
RAAN
273.5462°
Arg. of periapsis
165.3019°
True anomaly
194.81712°
Mean anomaly
194.9196°
Eccentric anomaly
194.86832°
Mean motion
3.56316 °/min
Orbital period
101.03 mins
BSTAR
0.0004318
Loading maneuver chart data...
Computing Atmospheric mass density...
Loading historical data...
Loading historical data...
Loading historical data...
Loading historical data...
Loading historical data...
Loading historical data...
Loading historical data...

Documentation

Showing up to 5 results
|